#timestamp,LO_Frequency,Hit,StdDev 
1636048815.2,286046996.9,N
1636048835.0,286046998.7,N
1636048835.9,286046998.7,N
1636048855.8,286046999.6,N
1636048875.6,286046998.7,N
1636048895.4,286046996.9,N
1636048915.3,286046999.6,N
1636048935.1,286046998.2,N
1636048955.8,286046999.1,N
1636048975.7,286046997.7,N
1636048995.5,286046997.0,N
1636049015.4,286046999.4,N
1636049035.2,286046996.8,N
1636049055.0,286046997.0,N
1636049055.9,286046997.0,N
1636049075.8,286046997.3,N
1636049095.6,286046996.9,N
1636049115.4,286046996.9,N
1636049135.3,286046997.1,N
1636049155.1,286046997.0,N
1636049175.9,286046996.5,N
1636049195.7,286047000.7,N
1636049215.5,286047000.6,N
1636049235.4,286046998.4,N
1636049255.2,286046998.9,N
1636049275.1,286047001.0,N
1636049276.0,286047001.0,N
1636049295.8,286047000.8,N
1636049315.6,286047001.1,N
1636049335.5,286047000.5,N
1636049355.3,286047000.0,N
1636049375.1,286047000.2,N
1636049395.9,286047001.8,N
1636049415.7,286047003.8,N
1636049435.6,286047002.1,N
1636049455.4,286047002.5,N
1636049475.2,286047002.0,N
1636049495.1,286047002.7,N
1636049496.0,286047002.7,N
1636049515.8,286047000.2,N
1636049535.6,286046998.2,N
1636049555.5,286046997.1,N
1636049575.3,286046996.8,N
1636049595.2,286046995.5,N
1636049615.9,286046995.4,N
1636049635.7,286046995.2,N
1636049655.6,286046996.1,N
1636049675.4,286046995.5,N
1636049695.2,286046993.5,N
1636049715.1,286046994.7,N
1636049716.0,286046994.7,N
1636049735.8,286046994.7,N
1636049755.7,286046994.8,N
1636049775.5,286046991.7,N
1636049795.3,286046992.5,N
1636049815.2,286046993.8,N
1636049835.0,286046993.3,N
1636049835.9,286046993.3,N
1636049855.8,286046993.6,N
1636049875.6,286046993.7,N
1636049895.4,286046993.6,N
1636049915.3,286046994.4,N
1636049935.1,286046995.7,N
1636049955.9,286046993.5,N
1636049975.7,286046993.5,N
1636049995.5,286046994.7,N
1636050015.4,286046996.3,N
1636050035.2,286046994.3,N
1636050055.0,286046993.8,N
1636050055.9,286046993.8,Y
1636050075.8,286047000.4,P
1636050095.6,286046998.1,N
1636050115.5,286046998.6,N
1636050135.3,286047000.6,N
1636050155.1,286047000.4,N
1636050175.9,286047000.2,N
1636050195.7,286046998.7,N
1636050215.5,286047001.1,N
1636050235.4,286047001.2,N
1636050255.2,286046998.4,N
1636050275.1,286046998.9,N
1636050276.0,286046998.9,N
1636050295.8,286046999.2,N
1636050315.6,286046996.5,N
1636050335.5,286046999.4,N
1636050355.3,286046998.4,N
1636050375.2,286046999.3,N
1636050395.9,286046996.5,N
1636050415.7,286046999.4,N
1636050435.6,286046998.7,N
1636050455.4,286046999.3,N
1636050475.2,286046996.7,N
1636050495.1,286046996.7,N
1636050496.0,286046996.7,N
1636050515.8,286046996.7,N
1636050535.7,286046996.6,N
1636050555.5,286046999.6,N
1636050575.3,286046997.1,N
1636050595.2,286046996.7,N
1636050615.0,286046999.0,N
1636050615.9,286046999.0,N
1636050635.7,286046996.5,N
1636050655.6,286046996.5,N
1636050675.4,286046997.3,N
1636050695.3,286046998.0,N
1636050715.1,286046995.7,Y
1636050716.0,286046995.7,P
1636050735.8,286046999.6,N
1636050755.7,286046999.3,N
1636050775.5,286046996.9,N
1636050795.3,286046997.0,N
1636050815.2,286046999.1,N
1636050835.0,286046999.2,N
1636050835.9,286046999.2,N
1636050855.8,286046996.5,N
1636050875.6,286046997.4,N
1636050895.4,286046996.9,N
1636050915.3,286046996.7,N
1636050935.1,286046996.5,N
1636050955.8,286046998.8,N
1636050975.7,286046998.4,N
1636050995.5,286046998.7,N
1636051015.4,286046999.1,N
1636051035.2,286046996.8,N
1636051055.0,286046997.5,N
1636051055.9,286046997.5,N
1636051075.8,286046997.4,N
1636051095.6,286046997.8,N
1636051115.4,286046997.7,N
1636051135.3,286046996.7,Y
1636051155.1,286047000.6,P
1636051175.9,286046998.6,N
1636051195.7,286046998.8,N
1636051215.5,286046998.1,N
1636051235.4,286046998.4,N
1636051255.2,286046998.5,N
1636051275.0,286046998.2,N
1636051276.0,286046998.2,N
1636051295.8,286047001.1,N
1636051315.6,286046998.5,N
1636051335.5,286046998.1,N
1636051355.3,286047000.0,N
1636051375.1,286046998.6,N
1636051395.9,286046999.3,N
1636051415.7,286046998.1,N
1636051435.5,286047001.2,N
1636051455.4,286046998.3,N
1636051475.2,286047000.5,N
1636051495.1,286047000.2,N
1636051496.0,286047000.2,N
1636051515.8,286047001.2,N
1636051535.6,286047000.9,N
1636051555.5,286046998.2,N
1636051575.3,286046999.7,N
1636051595.1,286047002.6,N
1636051615.9,286047000.0,N
1636051635.7,286046999.7,N
1636051655.6,286047002.5,N
1636051675.4,286047002.6,N
1636051695.2,286047002.8,N
1636051715.1,286047001.8,N
1636051716.0,286047001.8,N
1636051735.8,286047002.3,N
1636051755.6,286047002.6,N
1636051775.5,286047002.5,N
1636051795.3,286047002.0,N
1636051815.2,286047004.4,N
1636051835.9,286047001.5,N
1636051855.7,286047002.1,N
1636051875.6,286047000.1,N
1636051895.4,286047002.8,N
1636051915.3,286047004.0,N
1636051935.1,286047001.8,N
1636051936.0,286047001.8,N
1636051955.8,286047004.0,N
1636051975.7,286047003.9,N
1636051995.5,286047003.7,N
1636052015.3,286047001.3,N
1636052035.2,286047003.6,N
1636052055.0,286047002.9,N
1636052055.9,286047002.9,N
1636052075.8,286047004.4,Y
1636052095.6,286047000.0,P
1636052115.4,286046999.8,N
1636052135.3,286047002.8,N
1636052155.1,286046999.7,N
1636052175.9,286047000.8,N
1636052195.7,286047000.1,N
1636052215.5,286047001.4,N
1636052235.4,286047001.6,N
1636052255.2,286047004.4,Y
1636052275.0,286047001.9,P
1636052275.9,286047001.9,P
1636052295.8,286047002.8,P
1636052315.6,286047002.3,Y
1636052335.5,286047000.5,P
1636052355.3,286047000.9,N
1636052375.1,286047000.3,N
1636052395.9,286047000.6,N
